Regional Weather Roundup
Issued by NWS

Home | Current Version | Previous Version | Text Only | Print | Product List | Glossary Off
Versions: 1 2 3 4 5 6 7 8 9 10 11 12 13 14 15 16 17 18 19 20 21 22 23 24 25 26 27 28 29 30 31 32 33 34 35 36 37 38 39 40 41 42 43 44 45 46 47 48 49 50

737
ASUS43 KMKX 250411
RWRWI

WISCONSIN REGIONAL WEATHER ROUNDUP
NATIONAL WEATHER SERVICE MILWAUKEE/SULLIVAN WI
1100 PM CDT MON APR 24 2017

NOTE: "FAIR" INDICATES FEW OR NO CLOUDS BELOW 12,000 FEET WITH NO
SIGNIFICANT WEATHER AND/OR OBSTRUCTIONS TO VISIBILITY.

WIZ001-002-006>008-014>016-023>028-250500-
NORTHWEST WISCONSIN

CITY           SKY/WX    TMP DP  RH WIND       PRES   REMARKS
SUPERIOR ARPT  CLOUDY    37  34  91 NE17G24   29.67S WCI  27
ASHLAND        CLOUDY    39  35  86 NE6       29.67F WCI  35
HAYWARD        CLOUDY    62  30  29 SE9       29.61F
SIREN          CLOUDY    63  31  30 CALM      29.58S
CUMBERLAND     CLOUDY    59  30  33 S22       29.61S
RICE LAKE      CLOUDY    62  31  31 SE9       29.63F
CHETEK         CLOUDY    62  33  34 S8        29.64R
LADYSMITH      CLOUDY    62  32  33 SE6       29.67F
EAU CLAIRE     CLOUDY    63  30  28 SE3       29.62F
MENOMONIE      CLOUDY    65  32  29 SW3       29.63S
NEW RICHMOND   CLOUDY    63  30  29 S13       29.59F
OSCEOLA        CLOUDY    64  32  30 SE17G24   29.59F
$$

WIZ003>005-009-010-017-018-250500-
NORTH CENTRAL WISCONSIN

CITY           SKY/WX    TMP DP  RH WIND       PRES   REMARKS
MANITOWISH WTR CLOUDY    55  38  53 S8        29.72F
ARBOR VITAE    CLOUDY    57  38  48 SE9       29.74R
WOODRUFF       CLOUDY    57  38  48 SE9       29.74R
RHINELANDER    CLOUDY    56  33  42 SE7       29.75S
EAGLE RIVER    CLOUDY    53  32  44 SE7       29.75R
LAND O LAKES   CLOUDY    53  32  45 S6        29.77R
PHILLIPS       CLOUDY    60  33  35 S5        29.68F
TOMAHAWK       CLOUDY    55  35  48 SE3       29.73F
MEDFORD        CLOUDY    58  34  41 SE9G17    29.69F
MERRILL        CLOUDY    58  32  37 S8        29.73R
$$

WIZ029-030-035-036-043>047-250500-
CENTRAL WISCONSIN

CITY           SKY/WX    TMP DP  RH WIND       PRES   REMARKS
WAUSAU         CLOUDY    58  31  35 SE8       29.72R
MOSINEE        CLOUDY    55  32  41 SE10      29.73S
MARSHFIELD     CLOUDY    58  33  39 SE8       29.68F
STEVENS POINT  CLOUDY    56  31  37 SE5       29.73R
WAUPACA        CLOUDY    60  29  31 SE9       29.73F
WAUTOMA        CLOUDY    62  30  29 SE12G18   29.73S
WISC RAPIDS    NOT AVBL
CAMP DOUGLAS   CLOUDY    62  35  36 SE14G23   29.66F
$$

WIZ011>013-019>022-031-037>040-048>050-250500-
NORTHEAST WISCONSIN

CITY           SKY/WX    TMP DP  RH WIND       PRES   REMARKS
ANTIGO         MOCLDY    52  32  46 SE8       29.76S
SHAWANO        CLOUDY    56  33  42 SE5       29.76S
OCONTO         CLOUDY    44  36  73 E5        29.79S
STURGEON BAY   CLOUDY    46  33  60 E9        29.80F
GREEN BAY      CLOUDY    50  38  63 SE9       29.77F
MANITOWOC      PTCLDY    42  37  82 SE6       29.79F
APPLETON       MOCLDY    57  28  33 SE7       29.75S
CLINTONVILLE   CLOUDY    55  30  38 SE6       29.74S
OSHKOSH        CLOUDY    56  35  45 SE12      29.74F
$$

WIZ032>034-041-042-053>061-250500-
SOUTHWEST WISCONSIN

CITY           SKY/WX    TMP DP  RH WIND       PRES   REMARKS
LA CROSSE      CLOUDY    66  32  28 S7        29.63S
SPARTA         CLOUDY    65  30  26 S6        29.66S
VIROQUA        CLOUDY    63  29  27 S9        29.67R
BOSCOBEL       CLOUDY    68  29  23 VRB5      29.67R
PRAIRIE DU CHI PTCLDY    64  27  25 E7        29.65S
PLATTEVILLE    CLOUDY    62  33  33 SE10      29.68F
$$

WIZ056-057-062-063-064-067-068-250500-
SOUTH CENTRAL WISCONSIN

CITY           SKY/WX    TMP DP  RH WIND       PRES   REMARKS
REEDSBURG      CLOUDY    62  36  37 SE6       29.69F
BARABOO/DELLS  CLOUDY    62  29  29 SE10      29.70F
LONE ROCK      CLOUDY    64  32  30 SE10      29.68S
MINERAL POINT  CLOUDY    63  28  27 SE13      29.69S
MADISON        CLOUDY    62  29  28 SE15      29.72S
MIDDLETON      CLOUDY    63  28  26 SE14      29.71F
WATERTOWN      PTCLDY    57  32  38 E7        29.75S
MONROE         CLOUDY    61  30  31 SE15G21   29.71S
JANESVILLE     CLOUDY    59  30  33 E10       29.73F
$$

WIZ051-052-058>065-066-070>072-250500-
SOUTHEAST WISCONSIN

CITY           SKY/WX    TMP DP  RH WIND       PRES   REMARKS
MILWAUKEE      CLOUDY    47  36  65 NE3       29.78F
WAUKESHA       CLOUDY    50  30  46 E8        29.78F
MILWAUKEE/TIMM CLOUDY    48  30  49 E6        29.79F
RACINE         CLOUDY    51  34  52 S5        29.80S
KENOSHA        CLOUDY    44  35  70 E3        29.78F
FOND DU LAC    PTCLDY    55  32  41 S8        29.76R
SHEBOYGAN      CLOUDY    43  37  79 CALM      29.79F
WEST BEND      CLOUDY    46  32  57 CALM      29.78F
JUNEAU         CLOUDY    55  33  42 SE7       29.77R
$$

LSZ147-162-250500-
LAKE SUPERIOR

STATION/POSITION TIME  TEMP    WIND        PRES    WAVE
                       AIR SEA DIR/SP/G            HT/PER
                 (UTC) (F)     (DEG/KT/KT) (MB)    (FT/S)
DEVILS ISLAND    0400   38      60/ 25/ 29 1005.7F
PORT WING        0340   38      40/ 15/ 19 1005.1F
SAXON HARBOR     0340   40     330/  3/  3 1004.7F
$$

LMZ867-665-643>646-250500-
LAKE MICHIGAN

STATION/POSITION TIME  TEMP    WIND        PRES    WAVE
                       AIR SEA DIR/SP/G            HT/PER
                 (UTC) (F)     (DEG/KT/KT) (MB)    (FT/S)
CHAMBERS ISLAND  0340   45      90/  6/  9 1009.1F
N MID LAKE BUOY  0350   40 37  100/  8/  8 1011.2F   2/ 4
NORTHPORT PIER   0340   42     110/  6/  8 1009.8F
SISTER BAY       0336   43     100/  9/ 14   N/A
ALGOMA LAKESHORE 0344           CALM  /  5   N/A
KEWAUNEE LAKESHO 0348   45     140/  1/  5 1008.9F
SHEBOYGAN LAKESH 0400   46      30/  3/  3 1009.0F
PORT WASHINGTON  0330   47      10/  2/  3 1010.2S
MILWAUKEE LAKESH 0350   47      30/  5/  6   N/A
S MID LAKE BUOY  0250   49 42   90/ 10/ 10 1009.3F   1
KENOSHA   LAKESH 0400   53     160/ 13/ 17 1008.5
$$

TC  - TEMPERATURE IN CELSIUS
VSB - VISIBILITY IN STATUTE MILES
WCI - WIND CHILL INDEX
HX  - HEAT INDEX





USA.gov is the U.S. government's official web portal to all federal, state and local government web resources and services.